Santiago Peña

Recruteur en chef - Cádiz
3 Avr 2027
Samedi
Processus

Personnalité

Adaptabilité (16) Ambition (12) Controverse (12) Loyauté (10) Pression (15) Professionnalisme (14) Sportivité (10) Tempérament (18)

Profil

Style d'entraînement Démocratique
Diplôme Continental C
Détermination 11
Gestion des joueurs 10
Motivation 11
Discipline 8
Satisfaction professionnelle
50%
Fatigue
0%
Rôle Recruteur en chef
Salaire 23.4K p/s
Contrat 14.03.2028

Performance

Comportement Normal
Efficacité de l'entraînement
17%
Développement des joueurs
55%
Prévention des blessures
60%
Mise en place tactique
25%

Événements récents

A évalué un joueur maintenant
A participé à une réunion de recrutement maintenant
A recommandé une cible de transfert maintenant
A recommandé une cible de transfert maintenant
A recommandé une cible de transfert maintenant
A évalué un joueur maintenant
A évalué un joueur maintenant
A évalué un joueur 7j

Suivi en cours

168
Joueur Club Statut Capacité Confiance Observé Dernière observation Dernier vote
Marlon Gomes Shakhtar Actif 154 / 154 40% 3 02.04.2027 -
André Porto Anderlecht Actif 99 / 114 40% 1 02.04.2027 -
Agustín Medina Lanús Actif 124 / 114 40% 1 02.04.2027 -
Myron van Brederode KV Mechelen Actif 109 / 115 40% 1 02.04.2027 -
Juan Bezerra Zamalek Actif 126 / 118 40% 6 01.04.2027 -
Akinkunmi Amoo Ismaily Actif 123 / 136 40% 2 01.04.2027 -
Duk Atlas Actif 137 / 120 40% 3 30.03.2027 -
Luís Guilherme Sporting CP Actif 141 / 133 40% 2 30.03.2027 -
Rômulo Tigres Actif 111 / 132 40% 2 28.03.2027 -
Juan María Alcedo Torreense Actif 115 / 128 40% 1 28.03.2027 -
Helinho Toluca Actif 123 / 141 40% 21 27.03.2027 -
Sergio Quintero La Equidad Actif 138 / 139 40% 6 26.03.2027 -
Cédric Don Maccabi Haifa Actif 143 / 112 40% 2 26.03.2027 -
Camilo Rey Domenech Boca Juniors Actif 103 / 126 40% 1 26.03.2027 -
Vinicius Tobias Shakhtar Actif 154 / 115 40% 2 25.03.2027 -
Keagan Hlatshwayo SuperSport United Actif 138 / 98 40% 3 25.03.2027 -
Andrija Bulatović RC Lens Actif 136 / 137 40% 2 23.03.2027 -
Ronaldo Rostov Actif 133 / 107 40% 1 23.03.2027 -
Mohamed Ali Ben Romdhane Al Ahly Actif 140 / 114 40% 1 22.03.2027 -
José Pachuca Puebla Actif 125 / 115 40% 2 21.03.2027 -
Dani Tasende Córdoba Actif 117 / 104 40% 1 17.03.2027 -
Leandro Andrade Polissia Actif 138 / 123 40% 4 16.03.2027 -
John Mercado Sparta Prague Actif 144 / 109 40% 2 16.03.2027 -
Jack Currie Oxford United Actif 120 / 121 40% 2 15.03.2027 -
Marley Aké Zulte Waregem Actif 130 / 114 40% 2 14.03.2027 -
Haissem Hassan Bloemfontein Celtic Actif 139 / 143 40% 1 14.03.2027 -
Fidel Ambríz Monterrey Actif 109 / 117 40% 7 11.03.2027 -
Andrea Ciofi Cesena Actif 122 / 110 40% 1 11.03.2027 -
Kauã Elias Shakhtar Actif 134 / 132 40% 2 10.03.2027 -
Armstrong Oko-Flex Levski Actif 116 / 101 40% 1 10.03.2027 -
Emirhan Başyiğit Sivasspor Actif 95 / 124 40% 1 10.03.2027 -
Tiago Freitas Benfica Actif 114 / 115 40% 1 10.03.2027 -
Jon Garro Real Sociedad Refusé 79 / 95 67% 1 08.03.2027 Refuser
Raymond Agyemang Aduana Stars Actif 85 / 102 40% 1 08.03.2027 -
Luis Palma Lech Actif 136 / 102 40% 1 08.03.2027 -
Yira Sor Racing Genk Actif 120 / 126 40% 1 07.03.2027 -
Martín Tejón Maritimo Actif 119 / 112 40% 2 06.03.2027 -
Luciano Juba Bahia Actif 135 / 132 40% 1 04.03.2027 -
Luke Thomas Leicester City Actif 131 / 119 40% 1 02.03.2027 -
Junior Tchamadeu Stoke City Actif 124 / 126 40% 1 01.03.2027 -
Cristian Ferreira Académico de Viseu Actif 106 / 109 40% 1 28.02.2027 -
Milan Vukotić Partizan Actif 132 / 119 40% 1 28.02.2027 -
Oswin Appollis Orlando Pirates Actif 117 / 133 40% 2 27.02.2027 -
Omar Campos Cruz Azul Actif 142 / 125 40% 7 26.02.2027 -
Sergio Lozano Jagiellonia Actif 120 / 127 40% 1 26.02.2027 -
Aldo López Santos Laguna Actif 109 / 108 40% 1 24.02.2027 -
Ibrahim Cissoko Zwolle Actif 122 / 135 40% 2 23.02.2027 -
Emi Rodriguez Leon Actif 105 / 105 40% 2 22.02.2027 -
Lindon Emërllahu Polissia Actif 135 / 138 40% 1 18.02.2027 -
Jeremy Márquez Cruz Azul Actif 135 / 133 40% 3 16.02.2027 -
Abbosbek Fayzullayev Basaksehir Actif 152 / 114 40% 1 15.02.2027 -
Peter Federico Gornik Zabrze Actif 119 / 119 40% 2 13.02.2027 -
Bill Antonio KV Mechelen Actif 119 / 128 40% 1 12.02.2027 -
Édouard Vincent Tours Actif 117 / 131 40% 1 11.02.2027 -
David González Burgos Actif 107 / 136 40% 1 05.02.2027 -
Ozziel Herrera Tigres Actif 129 / 145 40% 6 04.02.2027 -
Damián Puebla Orenburg Actif 109 / 112 40% 1 04.02.2027 -
Florián Monzón Atlas Actif 130 / 108 40% 3 20.01.2027 -
Alejandro Piedrahita Deportivo Pereira Actif 115 / 134 40% 12 18.01.2027 -
Jerónimo Porto Lapegüe Slask Actif 87 / 98 40% 3 18.01.2027 -
Dardan Shabanhaxhaj Rubin Actif 128 / 125 40% 1 18.01.2027 -
Alexis Cuello San Lorenzo Actif 121 / 120 40% 5 17.01.2027 -
Bryan González Guadalajara Actif 131 / 140 40% 4 15.01.2027 -
Jefry Zapata Once Caldas Actif 134 / 124 40% 2 15.01.2027 -
Lee Bonis Oxford United Actif 99 / 104 40% 1 14.01.2027 -
Ignacio Russo Tigre Actif 132 / 122 40% 1 14.01.2027 -
Diego Aznar Huesca Actif 113 / 103 40% 1 13.01.2027 -
Jalen Blesa Rio Ave Actif 123 / 115 40% 1 13.01.2027 -
Moses Cobnan Krasnodar Actif 121 / 129 40% 1 10.01.2027 -
Bojan Radulović Huddersfield Town Actif 128 / 127 40% 1 10.01.2027 -
Sampson Dweh Viktoria Plzen Rapport prêt 133 / 134 66% 1 01.01.2027 Approuver
Kota Tawaratsumida FC Tokyo Perdu 133 / 136 66% 1 01.01.2027 Approuver
Mao Hosoya Corinthians Rapport prêt 134 / 135 67% 1 01.01.2027 Approuver
Dion Beljo Dinamo Zagreb Rapport prêt 131 / 132 64% 1 01.01.2027 Approuver
Ibrahim Tarek Masr El Makasa Actif 102 / 141 40% 1 31.12.2026 -
Diego Valencia Gornik Leczna Actif 133 / 105 40% 2 30.12.2026 -
Fábio Tavares Newport County Actif 90 / 100 40% 1 30.12.2026 -
Tamerlan Musaev CSKA Moscow Actif 102 / 109 40% 1 28.12.2026 -
Chrystian Barletta São Paulo Actif 114 / 122 40% 1 25.12.2026 -
Dylan Borrero America de Cali Actif 111 / 111 40% 1 25.12.2026 -
Alex Luna Instituto Actif 126 / 129 40% 7 24.12.2026 -
Yoshan Valois Lanús Actif 104 / 112 40% 2 23.12.2026 -
Pedro Vite Pumas UNAM Actif 104 / 128 40% 4 20.12.2026 -
Santiago González Tigre Actif 131 / 120 40% 1 16.12.2026 -
Matías Pellegrini Vélez Actif 132 / 123 40% 1 15.12.2026 -
Thiago Calone All Boys Actif 112 / 108 40% 1 15.12.2026 -
Zé Leite Oliveirense Actif 121 / 109 40% 1 15.12.2026 -
Matías Fernández Independiente Rivadavia Actif 107 / 132 40% 2 13.12.2026 -
Aarón Molinas Defensa y Justicia Actif 126 / 120 40% 1 13.12.2026 -
Franco Déboli Slaven Belupo Actif 122 / 95 40% 1 13.12.2026 -
Rok Zajc NK Domzale Actif 121 / 108 40% 1 13.12.2026 -
Jesús Garza Tigres Actif 102 / 105 40% 2 12.12.2026 -
César Araújo Tigres Actif 109 / 113 40% 2 12.12.2026 -
Angelo Gattermayer Wolfsberger AC Actif 125 / 135 40% 2 11.12.2026 -
Eliás Montiel Pachuca Actif 110 / 120 40% 4 10.12.2026 -
Matías Sosa Arsenal Actif 112 / 117 40% 1 10.12.2026 -
Ali Soliman Masr El Makasa Actif 122 / 139 40% 1 10.12.2026 -
Mateo Fernández Angusht Actif 99 / 64 40% 1 08.12.2026 -
Dale Taylor Blackpool Actif 112 / 123 40% 1 08.12.2026 -
Alexander Díaz Deportivo Riestra Actif 114 / 115 40% 1 05.12.2026 -
Franco Ibarra Rosario Central Actif 129 / 128 40% 5 04.12.2026 -
Franco Romero Toluca Actif 121 / 121 40% 3 04.12.2026 -
Pedro Bravo FC Midtjylland Actif 130 / 137 40% 1 02.12.2026 -
Santiago Apa All Boys Actif 98 / 109 40% 1 01.12.2026 -
Matías Giménez Rojas Argentinos Juniors Actif 119 / 118 40% 1 01.12.2026 -
Jannenson Sarmiento Junior Actif 125 / 116 40% 3 26.11.2026 -
Franco Watson Lanús Actif 117 / 124 40% 1 26.11.2026 -
Tomás Silva Platense Actif 128 / 133 40% 1 25.11.2026 -
Enzo González Defensores Actif 114 / 107 40% 3 24.11.2026 -
Jhomier Guerrero Millonarios Actif 126 / 112 40% 2 24.11.2026 -
Aaron Spetale AGF Actif 100 / 103 40% 1 24.11.2026 -
Niall Ennis Blackpool Actif 98 / 116 40% 1 22.11.2026 -
Luka Romero Cruz Azul Actif 102 / 123 40% 1 19.11.2026 -
Jens Petter Hauge Bodo/Glimt Actif 137 / 127 40% 1 18.11.2026 -
Rodrigo González Aldosivi Actif 126 / 116 40% 2 16.11.2026 -
Simo Maritimo Actif 120 / 115 40% 1 15.11.2026 -
Iker Benito Queretaro Actif 101 / 114 40% 4 11.11.2026 -
Itumeleng Tau Ajax Cape Town Actif 101 / 96 40% 1 11.11.2026 -
César Ibáñez Huracán Actif 116 / 131 40% 3 10.11.2026 -
Matías Galarza Talleres Actif 116 / 132 40% 1 09.11.2026 -
César Huerta Pumas UNAM Actif 103 / 137 40% 1 06.11.2026 -
Mateo Zuleta Once Caldas Actif 123 / 126 40% 2 05.11.2026 -
Felipe Peña Biafore Lanús Actif 129 / 125 40% 2 04.11.2026 -
Emerson Batalla Atletico Bucaramanga Actif 111 / 116 40% 2 01.11.2026 -
Esteban Obregón Montevideo City Torque Actif 109 / 127 40% 1 23.10.2026 -
Luciano Cosentino Wanderers Actif 131 / 117 40% 2 22.10.2026 -
Juan David Rueda Alianza Petrolera Actif 101 / 117 40% 1 22.10.2026 -
Juan Pablo Domínguez Leon Actif 125 / 108 40% 3 20.10.2026 -
Adrián Sánchez Belgrano Actif 114 / 122 40% 1 20.10.2026 -
Juan Cruz de los Santos Nacional Perdu 136 / 134 40% 1 19.10.2026 -
Camilo Perez Cortulua Actif 127 / 132 40% 4 17.10.2026 -
Ezequiel Bullaude Santos Laguna Actif 107 / 126 40% 2 17.10.2026 -
Ramiro Sordo Santos Laguna Actif 112 / 136 40% 3 15.10.2026 -
Ramiro Ruiz Rodríguez Atlético Tucumán Actif 112 / 129 40% 1 12.10.2026 -
Franco Díaz KV Oostende Actif 121 / 114 40% 2 08.10.2026 -
Nicolás Fonseca Leon Actif 132 / 127 40% 1 08.10.2026 -
Efraín Álvarez Guadalajara Actif 110 / 132 40% 1 03.10.2026 -
Camilo Durán Bloemfontein Celtic Actif 101 / 107 40% 1 02.10.2026 -
Kevin Zenón Boca Juniors Actif 122 / 134 40% 1 28.09.2026 -
Brian Rodríguez Club America Actif 135 / 125 40% 2 25.09.2026 -
Renzo Reynaga Patronato Actif 101 / 123 40% 1 25.09.2026 -
Enzo Avaro Mitre Actif 125 / 101 40% 1 25.09.2026 -
Justo Giani Universidad Catolica Actif 122 / 123 40% 1 19.09.2026 -
Matko Miljevic Racing Club Actif 113 / 124 40% 1 18.09.2026 -
Gastón Benedetti Estudiantes Actif 119 / 130 40% 1 18.09.2026 -
Tomás Alarcón Colo-Colo Actif 108 / 113 40% 1 16.09.2026 -
Pedro Ramírez Deportivo Riestra Actif 109 / 104 40% 1 16.09.2026 -
Javier Altamirano Universidad de Chile Actif 118 / 123 40% 1 13.09.2026 -
Clemente Montes Universidad Catolica Actif 135 / 109 40% 1 12.09.2026 -
Agustín Gallo Tristán Suárez Actif 119 / 114 40% 1 11.09.2026 -
Martín Ortega Newell's Old Boys Actif 114 / 123 40% 1 10.09.2026 -
Santiago Toloza O'Higgins Actif 123 / 127 40% 1 10.09.2026 -
Bruno Méndez Toluca Actif 135 / 111 40% 1 09.09.2026 -
Juan Carlos Portillo River Plate Actif 125 / 127 40% 1 09.09.2026 -
Nahuel Herrera Penarol Actif 124 / 128 40% 1 26.08.2026 -
Lucas Quintana Cerro Porteno Actif 123 / 120 40% 1 26.08.2026 -
Jonathan Arteaga Veracruz Actif 108 / 100 40% 1 25.08.2026 -
Timoteo Chamorro Talleres Actif 114 / 122 40% 1 21.08.2026 -
Santiago Sosa Yung Defensa y Justicia Actif 112 / 117 40% 1 16.08.2026 -
Agustín Obregón River Plate Actif 99 / 128 40% 1 12.08.2026 -
Mateo Mendoza Godoy Cruz Actif 120 / 130 40% 1 12.08.2026 -
Abdón Prats Mallorca Actif 136 / 121 44% 1 10.08.2026 -
Juan Giménez Rosario Central Actif 114 / 114 40% 1 09.08.2026 -
Enzo Cardozo Almirante Brown Actif 114 / 115 40% 2 07.08.2026 -
Juan Pablo De la Reta Maipú Actif 118 / 127 40% 1 07.08.2026 -
Alexandro Maidana Talleres Actif 105 / 104 40% 2 04.08.2026 -
Natanael Samaniego Huracán Actif 92 / 114 40% 1 02.08.2026 -
Pablo Ferreira Platense Actif 100 / 113 40% 1 01.08.2026 -